Shawbury, United Kingdom

12:55 PM GMT on February 10, 2016 (GMT +0000)
Shawbury Air Base

Weather History for EGOS - October, 2013

Change the Weather History Date:

Sunday, October 13, 2013

  Actual Average Record
Temperature  
Mean Temperature 50 °F -  
Max Temperature 52 °F 51 °F 64 °F (1998)
Min Temperature 48 °F 40 °F 33 °F (1999)
Degree Days  
Heating Degree Days 15    
Moisture  
Dew Point 47 °F    
Average Humidity 87    
Maximum Humidity 94    
Minimum Humidity 76    
Precipitation  
Precipitation 0.08 in - - ()
Sea Level Pressure  
Sea Level Pressure 29.94 in    
Wind  
Wind Speed 10 mph ()    
Max Wind Speed 15 mph    
Max Gust Speed -    
Visibility 7.2 miles    
Events Rain    
Averages and records for this station are not official NWS values.
T = Trace of Precipitation, MM = Missing Value Source: Averaged Metar Reports

Daily Weather History Graph

Daily Weather History Graph

Search for Another Location

Airport or City:

Trip Planner

Search our weather history database for the weather conditions in past years. The results will help you decide how hot, cold, wet, or windy it might be!

Date:

Astronomy

Oct. 13, 2013 Rise Set
Actual Time 7:33 AM BST 6:19 PM BST
Civil Twilight 6:58 AM BST 6:54 PM BST
Nautical Twilight 6:18 AM BST 7:33 PM BST
Astronomical Twilight 5:38 AM BST 8:13 PM BST
Moon 3:40 PM BST (10/13) 12:42 AM BST (10/13)
Length of Visible Light 11h 55m
Length of Day
10h 46m
Waxing Gibbous, 67% of the Moon is Illuminated
Oct 13
Waxing Gibbous
Oct 19
Full
Oct 27
Last Quarter
Nov 3
New
Nov 10
First Quarter

Hourly Weather History & Observations

Time (BST) Temp. Dew Point Humidity Pressure Visibility Wind Dir Wind Speed Gust Speed Precip Events Conditions
12:50 AM 51 °F 48 °F 87% 30.09 in 12 mi North 11.5 mph - -   Mostly Cloudy
12:50 AM 51.8 °F 48.2 °F 88% 30.06 in 6.2 mi North 11.5 mph - N/A   Mostly Cloudy
1:50 AM 51.8 °F 48.2 °F 88% 30.06 in 6.2 mi North 11.5 mph - N/A   Mostly Cloudy
2:50 AM 51.8 °F 48.2 °F 88% 30.04 in 6.2 mi North 11.5 mph - N/A   Mostly Cloudy
3:50 AM 51 °F 48 °F 86% 30.03 in 11 mi NNW 10.4 mph - -   Scattered Clouds
3:50 AM 51.8 °F 48.2 °F 88% 30.01 in 6.2 mi NNW 10.4 mph - N/A   Mostly Cloudy
4:50 AM 50.0 °F 48.2 °F 94% 30.01 in 6.2 mi NNW 10.4 mph - N/A   Mostly Cloudy
5:50 AM 50.0 °F 48.2 °F 94% 29.98 in 6.2 mi NNW 12.7 mph - N/A   Mostly Cloudy
6:50 AM 51 °F 48 °F 86% 29.99 in 9 mi NNW 9.2 mph - -  
6:50 AM 50.0 °F 48.2 °F 94% 29.98 in 6.2 mi NNW 9.2 mph - N/A   Overcast
7:50 AM 50.0 °F 48.2 °F 94% 29.98 in 6.2 mi NW 12.7 mph - N/A Rain Light Rain Showers
8:50 AM 50.0 °F 48.2 °F 94% 29.98 in 6.2 mi NNW 11.5 mph - N/A   Mostly Cloudy
9:50 AM 50 °F 48 °F 89% 29.97 in 10 mi NNW 12.7 mph - - Rain Rain
9:50 AM 50.0 °F 48.2 °F 94% 29.95 in 6.2 mi NNW 12.7 mph - N/A   Mostly Cloudy
10:50 AM 50.0 °F 46.4 °F 87% 29.95 in 3.1 mi NNW 11.5 mph - N/A Rain Rain Showers
11:50 AM 50.0 °F 46.4 °F 87% 29.92 in 6.2 mi NW 11.5 mph - N/A Rain Rain Showers
12:50 PM 49 °F 46 °F 87% 29.94 in 7 mi NW 12.7 mph - - Rain Rain
12:50 PM 50.0 °F 46.4 °F 87% 29.92 in 6.2 mi NW 12.7 mph - N/A Rain Rain
1:50 PM 48.2 °F 46.4 °F 93% 29.89 in 6.2 mi NW 15.0 mph - N/A   Mostly Cloudy
2:50 PM 50.0 °F 46.4 °F 87% 29.89 in 6.2 mi NNW 15.0 mph - N/A   Mostly Cloudy
3:50 PM 52 °F 47 °F 76% 29.88 in 12 mi NNW 13.8 mph - -   Mostly Cloudy
3:50 PM 51.8 °F 46.4 °F 82% 29.86 in 6.2 mi NNW 13.8 mph - N/A   Mostly Cloudy
4:50 PM 51.8 °F 46.4 °F 82% 29.86 in 6.2 mi NNW 11.5 mph - N/A   Mostly Cloudy
5:50 PM 51.8 °F 46.4 °F 82% 29.86 in 6.2 mi NNW 9.2 mph - N/A   Mostly Cloudy
6:50 PM 50 °F 47 °F 85% 29.88 in 14 mi NW 10.4 mph - -   Partly Cloudy
6:50 PM 50.0 °F 46.4 °F 87% 29.86 in 6.2 mi NW 10.4 mph - N/A   Mostly Cloudy
7:50 PM 50.0 °F 48.2 °F 94% 29.86 in 6.2 mi NNW 9.2 mph - N/A Rain Rain Showers
8:50 PM 50.0 °F 46.4 °F 87% 29.86 in 6.2 mi NNW 9.2 mph - N/A   Mostly Cloudy
9:50 PM 49 °F 46 °F 84% 29.88 in 11 mi NNW 9.2 mph - -   Mostly Cloudy
9:50 PM 50.0 °F 46.4 °F 87% 29.86 in 6.2 mi NNW 9.2 mph - N/A   Mostly Cloudy
10:50 PM 50.0 °F 44.6 °F 82% 29.86 in 6.2 mi NW 10.4 mph - N/A   Mostly Cloudy
11:50 PM 50.0 °F 42.8 °F 76% 29.83 in 6.2 mi NW 12.7 mph - N/A   Mostly Cloudy